Погода Радужный

Погода Радужный : погода сейчас, прогноз погоды и архив. Всё, что Вы хотите узнать о погоде Радужный!

Поиск расширенной информации на нашем сайте:

Другие новости

Новости СМИ2

Главная страница сайта

Новости сайта

03.07.2017

Напоминаем, что на нашем специализированном сайте Метеоцентр.Азия вы можете получить высокодетализированные автоматические прогнозы погоды по пунктам России, СНГ и мира в авиационном формате (включающие направление и скорость ветра, видимость, явления погоды, количество и форму облачности, нижнюю и верхнюю границу облачности).

Рекомендуем: Смотрите подробности stanley finance отзывы клиентов у нас на сайте.

Погода Радужный - сегодня

Время (UTC), дата Ветер
(°,м/с) 
Видим.   Явления Облачность Т
(°С)
Тd
(°С)
f(%) Тe
(°С)
Pmin
(гПа)
dP
(гПа)
Po
(мм)
O2
(г/м3)
Тmin Tmax R s Состояние
почвы
18 17.02.18 210 (ЮЗ) 10 км  {снег}  10/4 600 м средняя 
[Sc|Ac und]
-16 -17.9 85 -18  1025.8  -1  762  328           
03 18.02.18 210 (ЮЗ) 4000 м  слаб. ливневой снег  10/8 240 м кучево-дожд., средняя 
[Cb cap|Ac und]
-15.5 -17.5 85 -19  1024  -0.4  761  327  -16.5    49  равномерный
сухой снег
100% 
09 18.02.18 200 (Ю) 4000 м  слаб. ливневой снег  9/4 300 м кучево-дожд., верхняя 
[Cb cap|Cc]
-11.6 -14.1 82 -15  1022.6  -0.5  760  321           
15 18.02.18 220 (ЮЗ) 10 км  {ливн. осадки}  10/8 210 м кучево-дожд., средняя 
[Cb cap|Ac und]
-10.8 -12.4 88 -13  1021.4  -0.4  759  320    -10.6  0.5     
21 18.02.18 230 (ЮЗ) 10 км    10/8 240 м средняя 
[Sc|Ac und]
-12.6 -14.1 89 -15  1020.4  -0.1  758  322           
00 19.02.18 250 (З) 10 км    10/10 210 м 
[Sc]
-12.5 -14.3 86 -16  1020.5  0.1  759  322           
06 19.02.18 220 (ЮЗ) 10 км  {ливн. осадки}  10/3 300 м кучево-дожд., средняя, верхняя 
[Cb cap|Ac trans|Ci fib]
-11.9 -13.8 86 -15  1021  -0.3  759  321           
09 19.02.18 280 (З) 10 км    8/3 600 м средняя, верхняя 
[Cu hum|Ac trans|Ci fib]
-9.4 -12.6 77 -12  1021.6  0.6  759  318           
12 19.02.18 260 (З) 10 км    8/3 600 м средняя, верхняя 
[Sc|Ac trans|Ci fib]
-10.4 -12.6 84 -13  1022.7  1.1  760  320           
18 19.02.18 260 (З) 10 км    3/0 верхняя 
[Ci fib]
-17.1 -19.1 84 -20  1024.2  0.2  761  329           
21 19.02.18 240 (ЮЗ) 10 км  [диам. изморози 3 мм]  3/0 верхняя 
[Ci fib]
-22.8 -25.5 79 -23  1025.5  762  337           
00 20.02.18 250 (З) 10 км  [диам. изморози 5 мм]  10/0 верхняя 
[Cs]
-24.8 -27.6 77 -25  1026.1  0.5  762  340           
03 20.02.18 тихо ()   10 км  [диам. изморози 5 мм]  10/0 средняя 
[Ac As]
-24.7 -26.5 85 -25  1026.8  0.7  763  340  -25.8      51  равномерный
сухой снег
100% 
06 20.02.18 тихо ()   10 км  [диам. изморози 5 мм]  8/0 средняя, верхняя 
[Ac trans|Ci fib]
-19.3 -21.8 80 -19  1026.5  -0.1  763  332           
09 20.02.18 050 (СВ) 10 км  [диам. изморози 0 мм]  4/0 верхняя 
[Ci fib]
-15.2 -17.8 80 -15  1026.4  0.1  763  327           
12 20.02.18 060 (СВ) 10 км    6/0 верхняя 
[Ci fib]
-16.9 -19.2 82 -17  1026.3  -0.2  763  329           
18 20.02.18 060 (СВ) 4000 м  слаб. снег  10/0 средняя, верхняя 
[Ac trans|Cs]
-20.8 -23.3 80 -24  1025.8  -0.4  762  334           
21 20.02.18 050 (СВ) 4000 м  слаб. снег  10/0 средняя, верхняя 
[Ac trans|Cs]
-20.6 -23.1 80 -23  1025.8  762  334           
00 21.02.18 060 (СВ) 4000 м  слаб. снег  10/0 верхняя 
[Cs]
-22.2 -24.9 79 -25  1026.1  0.2  762  336           
03 21.02.18 060 (СВ) 10 км  {снег}  8/0 средняя, верхняя 
[Ac trans|Ci fib]
-22.6 -25.4 78 -26  1026.1  762  337  -22.8    0.2  51  равномерный
сухой снег
100% 
09 21.02.18 070 (В) 10 км    6/0 верхняя 
[Ci fib]
-16.5 -20.1 74 -19  1025.2  -0.6  762  328           
12 21.02.18 070 (В) 10 км    10/0 средняя, верхняя 
[Ac trans|Ci fib]
-17.5 -20.2 79 -21  1024.7  -0.6  761  329           
18 21.02.18 080 (В) 10 км    10/0 средняя, верхняя 
[Ac trans|Ci fib]
-17.7 -20.3 80 -22  1022.5  -1.3  760  329           
21 21.02.18 080 (В) 10 км    10/5 300 м средняя 
[Sc|Ac und]
-18.7 -21.3 80 -24  1021.5  -1  759  330           
03 22.02.18 080 (В) 4000 м  слаб. снег  10/6 270 м средняя 
[Frnb|As op]
-18 -20.7 79 -24  1018.5  -1.6  757  328  -18.7    0.6  51  равномерный
сухой снег
100% 
Время (UTC), дата Ветер
(°,м/с) 
Видим.   Явления Облачность Т
(°С)
Тd
(°С)
f(%) Тe
(°С)
Pmin
(гПа)
dP
(гПа)
Po
(мм)
O2
(г/м3)
Тmin Tmax R s Состояние
почвы

Для получения пояснительной информации подведите курсор к названию столбца.

ПОГОДА Радужный - архив

Всё, что Вы хотите узнать о погоде Радужный - удобно и подробно!

Выберите нужную дату (начиная с 1 января 2015* года) и нажмите кнопку "Найти".
Будут отображены архивные сводки погоды по пункту Радужный, начиная с указанной даты.


Отображать данные в формате CSV (для использования в таблицах Excel)


Внимание! Наш архив погоды предназначен исключительно для личного некоммерческого использования в познавательных целях. Если Вам необходимы официальные справки о состоянии погоды (для производственных, юридических, коммерческих и т.п. целей), обращайтесь в органы Росгидромета.

*Примечание: данная дата относится к архиву по метеостанциям СССР (Россия, СНГ, Балтия).
Архив по метеостанциям Зарубежной Европы и Азии (кроме Китая) хранится 10 дней, по другим регионам земного шара (Китай, Африка, Америка, Австралия, Океания) - 1 день.

Радужный - район местоположения метеостанции


Название, широта, долгота, высота метеостанции:
Радужный 62.1°ш. 77.3°д. 73 м над ур. моря [Российская Федерация]

Дополнительная информация

В oтличие oт бoльшинства пoгoдных сайтoв мы публикуем пoдрoбную метеoинфoрмацию в детальнoм прoфессиoнальнoм фoрмате.

Характеристики температуры и влажнoсти вoздуха измеряются на высoте 2 м в тени вдали oт зданий и деревьев.
Скoрoсть ветра измеряется на высoте 10 м (на урoвне рoста челoвека скoрoсть ветра ниже в 1.5-2 раза). Если метеoстанция нахoдится в гoрoде или в лесу, тo скoрoсть ветра занижена на 2-4 м/с пo сравнению с oткрытым местoм. Скoрoсть ветра над акватoриями крупных рек и oзёр, а также на вершинах хoлмoв на 2-5 м/с выше, чем в oбычных услoвиях.
Атмoсфернoе давление в разных тoчках местнoсти мoжет значительнo oтличаться oт давления на метеoстанции, в зависимoсти oт услoвий рельефа (при пoдъёме на 10 м давление пoнижается примернo на 1 мм рт.ст.).